Location: Hradec Kralove
(50.2170°N, 15.8330°E)
Time: 02:43:19
(UTC+01:00)

ISS - Visible Passes

Search period start: 22 January 2019 00:00
Search period end: 01 February 2019 00:00
Orbit: 404 x 410 km, 51.6° (Epoch: 22 January)

Date Brightness Start Highest point End Pass type
(mag) Time Alt. Az. Time Alt. Az. Time Alt. Az.
23 Jan -1.9 18:39:23 10° SSW 18:41:05 20° S 18:41:05 20° S visible
24 Jan -1.7 17:48:56 10° S 17:50:57 15° SE 17:52:04 13° ESE visible
24 Jan -1.2 19:23:44 10° WSW 19:24:48 19° SW 19:24:48 19° SW visible
25 Jan -3.2 18:32:35 10° SW 18:35:43 42° SSE 18:35:43 42° SSE visible
26 Jan -2.5 17:41:35 10° SSW 17:44:28 28° SSE 17:46:33 15° E visible
26 Jan -1.9 19:17:28 10° WSW 19:19:16 30° WSW 19:19:16 30° WSW visible
27 Jan -3.8 18:26:07 10° WSW 18:29:25 73° SSE 18:30:03 53° E visible
27 Jan -0.2 20:02:44 10° W 20:02:46 10° W 20:02:46 10° W visible
28 Jan -3.3 17:34:51 10° SW 17:38:04 51° SSE 17:40:47 14° E visible
28 Jan -2.4 19:11:17 10° W 19:13:30 38° WNW 19:13:30 38° WNW visible
29 Jan -3.8 18:19:50 10° W 18:23:09 79° NNW 18:24:13 40° ENE visible
29 Jan -0.4 19:56:31 10° WNW 19:56:55 13° WNW 19:56:55 13° WNW visible
30 Jan -3.8 17:28:24 10° WSW 17:31:43 83° SSE 17:34:53 11° ENE visible
30 Jan -2.9 19:05:04 10° W 19:07:36 47° WNW 19:07:36 47° WNW visible
31 Jan -3.7 18:13:35 10° W 18:16:52 67° N 18:18:17 31° ENE visible
31 Jan -0.7 19:50:13 10° WNW 19:50:59 16° WNW 19:50:59 16° WNW visible
